Weather History for Rockford, IL

Change the Weather History Date:

Tuesday, February 5, 2013

  Actual Average Record
Temperature  
Mean Temperature 16 °F 23 °F  
Max Temperature 31 °F 31 °F 56 °F (1946)
Min Temperature 1 °F 15 °F -21 °F (1979)
Degree Days  
Heating Degree Days 49 42  
Month to date heating degree days 260 211  
Since 1 July heating degree days 3845 4120  
Cooling Degree Days 0 0  
Month to date cooling degree days 0 0  
Year to date cooling degree days 0 0  
Moisture  
Dew Point 18 °F    
Average Humidity 81    
Maximum Humidity 92    
Minimum Humidity 69    
Precipitation  
Precipitation 0.06 in 0.04 in 0.59 in (1953)
Month to date precipitation 0.48 0.20  
Year to date precipitation 3.57 1.57  
Snow  
Snow 1.40 in 0.30 in 5.00 in (1924)
Month to date snowfall 8.1 1.6  
Since 1 July snowfall 12.9 24.9  
Snow Depth 0.00 in    
Sea Level Pressure  
Sea Level Pressure 29.92 in    
Wind  
Wind Speed 7 mph (WSW)    
Max Wind Speed 17 mph    
Max Gust Speed 22 mph    
Visibility 6 miles    
Events Snow    
T = Trace of Precipitation, MM = Missing Value Source: NWS Daily Summary

Daily Weather History Graph

Daily Weather History Graph

Search for Another Location

Airport:

Trip Planner

Search our weather history database for the weather conditions in past years. The results will help you decide how hot, cold, wet, or windy it might be!

Date:

Astronomy

Feb. 05, 2013 Rise Set
Actual Time 7:04 AM CST 5:16 PM CST
Civil Twilight 6:35 AM CST 5:45 PM CST
Nautical Twilight 6:02 AM CST 6:19 PM CST
Astronomical Twilight 5:29 AM CST 6:51 PM CST
Moon 2:48 AM CST (2/5) 12:31 PM CST (2/5)
Length of Visible Light 11h 10m
Length of Day
10h 11m
Waning Crescent, 26% of the Moon is Illuminated
Feb 5
Waning Crescent
Feb 10
New
Feb 17
First Quarter
Feb 25
Full
Mar 4
Last Quarter

Hourly Weather History & Observations

Time (CST) Temp. Windchill Dew Point Humidity Pressure Visibility Wind Dir Wind Speed Gust Speed Precip Events Conditions
12:54 AM 6.1 °F - 3.0 °F 87% 29.99 in 10.0 mi Calm Calm - N/A   Mostly Cloudy
1:54 AM 3.0 °F -6.4 °F -0.0 °F 87% 29.97 in 10.0 mi SSE 4.6 mph - N/A   Clear
2:54 AM 5.0 °F - 1.0 °F 84% 29.96 in 10.0 mi Calm Calm - N/A   Scattered Clouds
3:54 AM 5.0 °F - 1.0 °F 84% 29.94 in 10.0 mi Calm Calm - N/A   Mostly Cloudy
4:54 AM 7.0 °F -1.7 °F 1.9 °F 80% 29.94 in 10.0 mi South 4.6 mph - N/A   Overcast
5:28 AM 8.6 °F 2.0 °F 5.0 °F 85% 29.88 in 2.0 mi South 3.5 mph - 0.00 in Snow Light Snow
5:48 AM 10.4 °F 2.2 °F 6.8 °F 85% 29.88 in 1.2 mi SSE 4.6 mph - 0.00 in Snow Light Snow
5:54 AM 10.9 °F 1.4 °F 7.0 °F 84% 29.92 in 1.2 mi SSE 5.8 mph - 0.01 in Snow Light Snow
6:46 AM 15.8 °F 8.6 °F 12.2 °F 86% 29.87 in 1.2 mi South 4.6 mph - 0.01 in Snow Light Snow
6:54 AM 15.1 °F 5.2 °F 12.0 °F 88% 29.90 in 1.2 mi South 6.9 mph - 0.01 in Snow Light Snow
7:10 AM 15.8 °F 6.1 °F 14.0 °F 93% 29.86 in 8.0 mi South 6.9 mph - 0.00 in   Overcast
7:54 AM 17.1 °F 6.6 °F 14.0 °F 88% 29.89 in 8.0 mi SSW 8.1 mph - 0.00 in   Overcast
8:54 AM 19.0 °F 9.0 °F 15.1 °F 85% 29.87 in 7.0 mi South 8.1 mph - N/A   Mostly Cloudy
9:54 AM 23.0 °F 11.7 °F 19.0 °F 85% 29.86 in 8.0 mi SSW 11.5 mph - N/A   Overcast
10:54 AM 27.0 °F 18.0 °F 21.0 °F 78% 29.86 in 8.0 mi WSW 9.2 mph - N/A   Overcast
11:54 AM 28.0 °F 19.3 °F 21.9 °F 78% 29.85 in 2.0 mi WSW 9.2 mph - 0.00 in Snow Light Snow
12:17 PM 28.4 °F 18.0 °F 23.0 °F 80% 29.81 in 1.8 mi WSW 12.7 mph - 0.00 in Snow Light Snow
12:33 PM 26.6 °F 15.2 °F 23.0 °F 86% 29.80 in 1.0 mi West 13.8 mph - 0.00 in Snow Light Snow
12:40 PM 26.6 °F 16.8 °F 23.0 °F 86% 29.80 in 0.5 mi West 10.4 mph - 0.01 in Snow Snow
12:54 PM 27.0 °F 18.0 °F 24.1 °F 89% 29.85 in 0.5 mi West 9.2 mph - 0.02 in Snow Snow
1:24 PM 28.4 °F 18.0 °F 24.8 °F 86% 29.81 in 0.8 mi West 12.7 mph - 0.02 in Snow Light Snow
1:37 PM 28.4 °F 18.5 °F 24.8 °F 86% 29.81 in 2.0 mi West 11.5 mph - 0.02 in Snow Light Snow
1:43 PM 28.4 °F 18.0 °F 24.8 °F 86% 29.81 in 3.0 mi West 12.7 mph - 0.02 in Snow Light Snow
1:54 PM 28.9 °F 18.2 °F 24.1 °F 82% 29.85 in 5.0 mi West 13.8 mph - 0.02 in Snow Light Snow
2:09 PM 28.4 °F 19.7 °F 24.8 °F 86% 29.82 in 2.0 mi West 9.2 mph - 0.00 in Snow Light Snow
2:17 PM 28.4 °F 18.0 °F 24.8 °F 86% 29.83 in 1.0 mi West 12.7 mph 18.4 mph 0.00 in Snow Light Snow
2:28 PM 28.4 °F 19.1 °F 24.8 °F 86% 29.84 in 3.0 mi West 10.4 mph - 0.00 in Snow Light Snow
2:54 PM 28.9 °F 18.2 °F 24.1 °F 82% 29.89 in 6.0 mi West 13.8 mph - 0.00 in   Haze
3:54 PM 28.9 °F 17.7 °F 23.0 °F 78% 29.92 in 7.0 mi NW 15.0 mph - N/A   Overcast
4:54 PM 28.9 °F 20.4 °F 23.0 °F 78% 29.95 in 9.0 mi WNW 9.2 mph - N/A   Overcast
5:54 PM 30.0 °F 23.2 °F 24.1 °F 79% 29.98 in 10.0 mi WNW 6.9 mph - N/A   Overcast
6:54 PM 30.0 °F 23.2 °F 24.1 °F 79% 30.01 in 10.0 mi WNW 6.9 mph - N/A   Overcast
7:54 PM 30.0 °F 25.2 °F 24.1 °F 79% 30.04 in 10.0 mi NW 4.6 mph - N/A   Overcast
8:54 PM 30.9 °F 23.5 °F 23.0 °F 72% 30.05 in 10.0 mi NW 8.1 mph - N/A   Overcast
9:54 PM 30.0 °F 23.2 °F 21.9 °F 72% 30.08 in 10.0 mi NNW 6.9 mph - N/A   Overcast
10:15 PM 30.2 °F 20.2 °F 19.4 °F 64% 30.06 in 10.0 mi North 12.7 mph - N/A   Overcast
10:54 PM 28.9 °F 21.1 °F 19.9 °F 69% 30.10 in 10.0 mi North 8.1 mph - N/A   Overcast
11:54 PM 28.0 °F 20.0 °F 19.0 °F 69% 30.12 in 10.0 mi North 8.1 mph - N/A   Overcast